ECMWFFLT1_sfc_temp_057.txt.gz
Temp
62 60 59 57 57 59 59 59 59 59 59 59 59 58 58 60 59 58 58 58 59 59 61 60 60 59 60 61 60 60 59 60 59 59 57 57 58 58 57 56 57 58 57 53 57 56 56 54 56 60 61 61 61 62 62 62 61 61 59 58 57 56 55
61 59 59 59 59 59 58 58 59 58 59 58 58 58 58 59 60 59 58 58 58 59 60 59 58 59 60 59 58 58 59 58 59 59 59 57 57 56 56 55 57 56 56 56 57 55 55 55 55 56 57 60 61 61 61 61 61 60 58 57 57 56 55
60 58 58 59 58 57 58 56 57 57 57 58 58 58 58 58 58 59 59 58 57 59 60 58 57 57 57 58 58 59 58 58 57 59 59 57 58 57 57 57 56 54 56 55 54 55 57 57 55 55 57 57 56 57 60 59 59 58 57 55 54 55 54
61 60 58 57 57 57 58 56 56 56 56 57 58 58 57 58 58 59 59 58 58 59 59 58 57 58 57 57 57 58 58 58 58 58 57 56 56 56 55 57 57 58 55 53 55 55 54 55 55 55 57 58 56 55 57 57 57 56 56 54 54 53 53
62 61 59 57 57 57 57 56 55 56 56 56 56 57 56 56 58 57 58 57 57 57 57 56 57 57 57 58 57 57 57 57 58 58 57 56 55 55 55 55 56 54 55 57 57 56 56 56 57 55 55 56 56 55 57 53 55 55 55 55 54 53 52
62 62 61 59 58 58 56 56 56 55 56 58 55 57 56 56 57 58 57 58 56 56 56 57 56 56 56 56 56 56 57 57 57 57 57 56 57 56 55 54 55 54 56 57 57 56 57 57 57 54 54 52 50 52 54 52 53 55 55 55 54 54 54
61 61 60 60 58 58 58 58 57 57 57 56 55 56 56 56 56 56 57 55 55 55 56 55 55 56 56 56 55 55 54 53 55 56 56 54 54 55 56 55 55 55 56 57 57 58 57 57 55 55 53 52 52 52 52 51 56 52 55 54 54 54 53
60 59 59 59 59 58 57 58 57 56 56 55 56 56 56 55 55 55 56 56 55 55 56 56 57 55 55 55 54 54 54 54 55 55 55 55 56 55 54 56 56 56 56 56 57 58 59 59 58 56 55 52 49 49 49 51 49 50 51 53 54 53 52
61 59 58 59 58 59 59 59 56 55 55 55 55 55 55 54 55 56 55 55 54 55 55 55 55 54 54 54 54 54 55 57 55 54 53 54 54 54 55 55 57 56 57 57 58 58 57 57 57 56 57 56 52 48 47 50 46 50 53 52 54 53 52
60 60 60 58 58 58 59 58 56 55 55 55 56 55 54 53 54 55 55 54 54 54 54 54 54 53 53 54 54 54 55 54 55 54 53 55 52 54 55 56 56 56 56 58 58 58 57 56 56 55 55 56 55 52 46 45 47 46 52 50 51 53 52
62 61 60 59 59 60 59 58 57 57 56 57 57 57 54 54 56 57 54 53 54 54 53 53 52 52 53 53 52 53 53 53 54 53 53 54 53 54 54 54 56 55 57 58 58 57 57 58 57 57 55 54 55 55 46 46 47 45 50 50 47 52 51
61 61 61 61 61 61 60 58 57 56 56 55 57 55 54 53 53 53 53 53 53 53 52 52 52 52 52 53 53 52 52 53 54 52 52 54 54 55 54 54 54 55 55 57 57 57 57 57 57 56 55 55 54 52 53 48 47 49 49 51 50 49 53
62 62 62 61 61 61 60 59 58 57 56 56 54 54 54 54 54 54 53 53 53 52 53 53 52 51 51 51 51 53 52 53 54 52 52 52 55 53 54 54 54 56 54 56 56 56 55 55 56 57 57 55 52 51 52 49 50 53 49 50 49 51 54
59 60 60 61 61 59 59 58 58 58 56 55 54 54 55 55 54 53 53 54 53 52 53 52 51 51 51 51 51 51 51 52 54 52 52 52 53 53 53 53 53 54 54 57 55 54 55 54 55 57 57 54 53 52 54 48 49 49 52 47 48 51 52
59 59 59 59 59 59 59 58 58 60 59 55 54 54 54 54 54 54 54 54 52 52 52 52 52 51 52 53 53 53 51 51 51 51 51 52 51 53 52 53 51 53 54 54 53 56 55 54 56 55 54 55 54 53 54 50 47 48 52 52 53 51 50
59 59 59 59 59 60 59 59 59 60 58 55 55 55 56 55 55 54 55 54 53 52 52 52 51 52 51 52 53 54 51 50 51 52 52 53 53 51 52 52 51 51 53 52 51 52 52 53 54 57 56 55 55 54 55 52 49 50 51 50 48 51 50
59 60 59 58 59 59 59 59 60 60 58 56 57 56 55 54 54 53 55 54 53 53 53 53 53 52 53 52 53 53 52 52 51 51 52 53 53 51 51 52 51 50 51 52 50 51 51 51 52 53 53 52 53 55 55 52 54 47 47 52 48 54 51
58 58 58 57 58 58 58 59 60 60 58 56 56 56 56 55 55 55 56 54 54 53 53 53 53 54 53 52 52 52 52 52 52 51 52 51 56 51 53 53 52 50 50 52 50 51 51 52 53 52 52 52 52 52 52 53 51 49 52 53 51 50 49
57 58 58 58 58 59 59 59 59 58 59 58 56 56 57 55 57 56 55 55 55 54 53 53 53 53 53 53 53 52 52 52 52 52 52 52 52 51 51 51 50 50 50 52 51 50 50 50 51 51 51 52 53 52 51 50 50 51 53 51 52 51 49
57 57 57 58 58 58 59 59 59 59 58 58 57 57 56 56 55 56 57 55 55 55 54 54 54 54 54 53 53 53 53 53 53 53 52 52 51 51 50 51 50 50 50 50 50 50 50 50 52 50 51 50 51 52 52 50 51 51 51 50 49 49 49
58 57 57 58 58 58 58 58 57 58 58 57 57 57 59 58 55 56 56 56 55 54 54 54 54 54 54 53 52 52 52 52 53 54 53 52 52 52 52 52 51 50 50 50 51 49 50 51 50 50 49 50 49 51 51 49 49 50 49 49 49 47 45
58 58 58 58 58 58 57 57 57 57 56 57 58 56 56 57 56 55 56 56 56 55 55 55 54 53 54 54 52 53 52 52 52 53 54 54 53 52 53 52 52 51 55 57 54 54 54 55 53 52 49 48 48 50 48 49 50 48 49 50 48 43 45
57 57 57 58 57 56 56 56 56 56 56 56 55 55 55 55 56 57 56 55 54 55 55 55 56 54 55 57 54 55 53 53 54 53 54 53 54 53 53 52 53 60 56 55 53 50 50 51 55 54 51 49 49 49 49 48 48 49 50 50 48 47 47
55 55 55 55 55 55 55 54 53 54 54 55 55 55 55 54 54 56 56 55 55 55 55 57 52 47 47 51 56 55 55 54 53 53 53 53 53 53 52 52 51 54 54 55 50 48 47 48 47 48 49 50 52 51 49 47 47 48 48 49 44 45 46
55 54 54 55 55 54 54 54 54 52 51 53 54 54 54 54 53 53 54 54 55 56 56 53 45 44 45 46 52 55 55 55 53 52 53 53 53 52 52 52 51 52 50 50 48 46 46 44 43 43 44 45 46 47 48 51 48 46 45 47 45 45 45
54 54 55 55 54 53 53 53 53 53 52 51 52 53 51 53 52 52 52 52 52 52 54 45 41 43 43 43 46 52 55 54 54 53 53 54 53 52 51 51 51 50 53 57 54 48 48 46 44 43 43 43 43 43 44 44 45 51 50 49 48 44 44
54 53 53 53 53 52 52 51 50 50 51 51 52 51 52 52 52 52 52 52 51 51 52 44 40 42 42 42 43 47 55 54 55 55 55 55 54 54 53 53 52 52 52 53 51 49 49 47 47 47 47 46 46 45 42 41 43 45 49 51 49 48 46
53 54 54 52 52 52 51 50 50 49 49 52 52 51 51 52 52 52 52 50 50 54 52 45 39 40 41 41 41 42 52 54 54 54 54 54 54 54 53 53 53 53 53 53 51 50 50 48 47 47 45 45 45 44 44 45 44 44 46 47 49 50 48
52 53 52 52 51 51 50 50 50 50 49 49 48 48 48 49 51 52 52 51 51 51 50 42 41 40 40 40 40 46 49 49 50 52 52 53 52 52 52 52 52 52 52 52 50 45 48 49 48 47 45 43 43 43 43 43 40 41 44 44 45 47 46
49 50 51 50 49 49 49 48 48 48 48 47 49 49 49 49 49 50 50 50 50 48 50 48 40 40 40 40 42 48 49 48 49 50 52 52 52 52 51 52 52 52 52 52 48 42 44 47 49 48 46 43 43 43 43 43 41 40 41 41 41 41 41
48 48 48 48 48 47 46 47 48 47 49 47 48 47 48 47 47 49 49 50 50 49 49 49 42 40 40 40 42 49 50 49 49 49 50 50 50 49 50 53 54 52 52 51 45 42 42 47 49 47 45 44 44 43 42 43 44 43 41 41 40 40 40
47 48 48 47 47 47 47 47 45 45 46 47 46 46 46 46 46 46 47 48 52 50 49 48 43 41 40 40 42 47 49 49 49 49 49 49 46 47 46 49 51 51 51 49 42 41 41 47 49 47 46 45 44 43 42 41 43 43 41 42 40 41 40
47 47 47 47 47 47 47 47 46 46 45 46 46 45 44 45 46 47 46 46 47 48 48 48 47 40 41 41 41 46 49 49 49 49 48 49 49 46 45 46 47 44 44 44 41 40 41 44 49 47 46 46 44 42 41 39 40 43 42 40 38 39 38
46 46 47 46 46 47 46 46 45 45 45 46 44 45 45 43 43 44 45 45 45 46 47 49 48 41 40 40 40 41 48 49 50 49 48 47 47 48 47 46 46 45 42 42 41 40 41 42 45 48 48 47 48 47 42 41 40 43 41 40 40 38 38
45 45 46 46 45 45 46 47 47 45 45 44 45 44 43 43 44 44 44 44 45 45 47 49 47 44 40 40 39 39 45 48 48 48 47 47 46 45 46 45 45 44 41 41 40 40 41 42 43 48 47 45 41 41 44 43 41 40 40 38 37 38 38
43 44 44 44 44 44 44 45 45 45 45 45 45 44 43 43 43 43 44 46 45 45 44 43 40 42 41 39 38 38 39 41 38 42 46 47 46 47 46 45 44 44 40 40 40 40 41 42 43 47 43 40 40 41 42 41 40 40 38 37 38 37 37
42 42 42 42 42 42 42 42 43 43 43 43 43 43 42 42 43 43 44 45 46 46 45 41 39 37 38 37 37 37 37 37 37 39 41 43 45 44 45 42 42 42 40 40 38 38 39 40 46 42 39 40 40 42 43 40 39 39 37 36 36 36 36

ECMWFFLT1_sfc_temp_060.txt.gz
Temp
61 59 58 56 57 59 59 58 59 58 59 59 59 59 60 61 60 60 60 60 61 61 62 61 61 60 61 62 62 62 61 62 61 60 59 59 59 59 58 58 59 60 58 56 60 59 57 55 56 60 61 61 61 61 61 61 60 60 59 58 58 57 58
60 58 58 59 58 59 58 57 58 58 58 58 58 58 59 60 62 59 59 59 59 60 62 60 60 60 61 61 60 60 60 60 61 61 60 59 60 59 57 57 58 57 58 59 59 59 58 57 56 57 57 59 60 59 60 60 60 59 58 58 58 58 58
59 57 58 57 56 57 58 57 57 58 57 58 57 57 58 58 59 59 58 59 58 60 61 60 59 59 60 60 60 60 60 60 60 61 60 60 60 59 59 58 57 57 58 58 57 58 59 60 57 56 58 57 54 55 58 58 58 58 58 57 57 58 57
58 58 57 56 56 56 57 56 57 56 56 57 57 57 57 58 59 60 59 59 60 61 60 59 59 60 59 59 59 60 60 60 59 59 59 59 60 59 59 60 60 60 59 57 57 58 58 57 57 56 57 58 56 55 56 58 58 58 59 57 57 57 57
59 59 58 56 57 57 57 56 55 56 55 56 55 56 56 58 59 58 59 58 58 57 58 58 58 59 59 59 59 59 59 59 59 59 59 58 58 58 58 59 59 59 56 60 59 59 60 59 59 56 55 57 56 56 58 57 59 58 58 58 58 57 57
60 60 58 57 56 57 56 56 56 56 55 58 56 57 56 57 59 58 58 58 57 58 57 58 57 58 58 58 59 58 58 58 58 59 58 58 59 59 59 58 59 57 58 60 59 60 60 61 60 56 55 55 53 54 57 56 57 59 59 59 59 58 58
60 60 59 58 57 57 57 57 57 57 57 58 56 56 56 57 58 59 58 56 56 56 57 57 57 57 57 58 58 58 58 57 57 58 58 58 58 58 59 58 58 58 58 60 60 61 60 60 58 56 55 55 55 54 54 57 58 59 60 60 59 59 58
61 60 59 59 58 57 57 57 57 56 57 56 56 56 56 56 56 56 57 57 56 56 57 57 57 56 57 57 57 56 56 56 57 57 57 57 57 57 58 59 58 58 58 60 61 61 62 61 59 58 57 53 53 53 54 55 54 56 57 58 59 59 57
61 59 58 59 59 59 58 58 57 57 58 56 55 55 55 56 56 57 57 56 55 56 56 56 56 56 55 56 56 56 57 57 56 57 56 57 57 57 58 57 59 58 59 60 61 61 62 61 61 59 59 58 55 52 52 55 53 56 57 58 59 58 58
59 59 58 58 58 57 58 58 58 56 56 57 56 55 54 54 56 56 57 56 55 55 55 55 55 55 55 55 55 55 55 55 56 54 55 56 55 56 57 58 58 58 58 59 60 61 60 60 60 59 61 60 59 55 51 51 52 52 58 56 58 59 58
60 59 59 58 57 57 56 56 56 56 56 57 57 57 55 55 56 58 56 55 54 54 54 54 54 54 55 54 54 54 53 54 55 55 55 55 55 56 56 57 58 58 58 59 59 59 60 60 59 59 59 59 60 58 52 53 53 51 56 54 54 59 56
59 59 59 59 58 58 57 56 56 56 55 56 57 55 54 54 54 54 54 54 54 54 53 54 54 54 55 55 55 54 53 54 55 54 54 56 55 56 57 57 57 58 58 59 59 59 59 59 59 59 58 58 56 56 56 55 54 55 55 57 56 55 58
59 59 59 58 58 58 58 57 56 55 56 56 54 55 55 55 55 54 53 54 53 53 54 53 54 54 54 53 54 54 53 54 55 55 54 54 56 55 56 57 57 58 58 59 59 59 59 59 59 60 59 58 55 55 56 55 56 57 54 56 55 56 57
58 59 58 59 59 58 57 57 57 57 55 55 54 55 55 55 55 54 54 55 54 54 54 53 53 54 55 53 53 53 53 54 55 54 55 54 55 55 56 57 56 56 58 59 58 58 59 59 58 59 59 58 56 55 57 53 55 55 55 51 53 56 56
58 58 58 58 58 58 57 56 56 56 57 55 55 55 55 55 55 54 55 54 53 53 53 53 53 54 55 54 54 54 53 54 54 54 54 55 54 54 55 56 56 56 57 59 58 59 59 58 59 60 59 58 58 56 56 54 53 55 56 54 55 54 56
58 58 58 58 58 57 57 56 57 57 56 55 54 56 55 55 55 55 55 53 53 53 53 53 52 53 53 55 55 53 52 53 55 55 55 54 55 54 55 55 54 55 56 57 56 57 56 58 59 60 59 58 58 57 57 56 54 55 55 55 53 56 56
58 58 58 58 58 56 57 56 57 57 57 56 56 55 55 55 55 55 55 54 54 54 53 53 53 53 54 55 55 54 52 53 53 54 55 55 55 55 55 55 54 55 56 56 55 55 55 56 57 58 58 57 57 56 56 54 57 54 54 57 53 59 56
57 57 58 57 57 56 56 57 57 57 57 57 56 56 55 54 55 55 56 55 54 54 54 54 54 53 53 53 54 54 53 53 53 53 53 54 57 56 56 57 54 54 55 56 54 55 55 56 57 57 57 57 57 56 56 56 56 54 56 56 55 54 53
56 57 57 56 56 56 56 56 57 58 58 58 56 56 55 55 56 55 56 55 55 55 54 53 54 54 54 53 53 53 53 53 53 53 53 54 54 53 56 56 54 54 55 56 54 53 53 55 54 55 56 56 57 56 56 55 55 56 58 57 56 55 54
56 56 56 56 56 57 57 56 57 58 58 58 57 55 54 55 55 55 56 55 55 54 54 54 54 54 54 54 54 54 53 53 54 53 53 54 53 53 53 54 53 53 54 54 55 55 54 53 55 54 54 54 55 55 55 56 56 55 55 55 54 54 55
56 56 56 56 55 55 56 57 56 56 57 57 57 56 56 56 55 55 55 55 54 54 54 54 53 53 53 54 54 54 55 55 55 54 54 53 54 54 54 54 53 53 54 53 54 54 55 55 53 54 52 54 54 54 54 54 54 54 54 54 55 54 52
56 56 57 57 56 56 56 56 56 57 57 57 57 55 55 56 56 56 55 55 55 55 55 55 55 54 53 53 53 54 55 55 54 55 55 54 53 53 53 53 52 51 55 56 53 52 53 54 55 55 53 53 53 54 54 53 54 53 53 54 53 50 53
56 55 55 55 55 56 56 56 56 56 56 56 56 55 54 55 57 56 56 56 55 55 55 54 56 53 53 55 53 55 54 53 53 54 55 55 56 54 52 52 54 58 56 55 52 49 48 50 52 56 55 53 54 54 54 54 53 54 53 54 54 53 53
55 55 54 55 55 56 56 56 56 56 56 56 57 55 54 55 55 56 56 55 55 55 54 56 52 47 47 50 55 54 54 53 53 53 53 54 54 55 52 52 52 53 55 55 52 46 46 46 48 48 48 51 54 56 54 53 53 53 54 54 52 52 54
54 54 54 54 54 53 53 53 53 52 52 52 52 54 54 54 54 54 55 55 55 55 55 52 46 44 43 44 50 55 55 54 53 54 54 55 54 54 54 54 53 52 52 54 53 52 49 46 45 44 44 44 45 47 50 56 54 51 52 53 51 53 53
54 53 53 53 53 53 53 52 52 52 52 51 52 52 52 52 52 52 53 55 54 53 53 46 43 42 42 41 42 52 55 55 55 55 56 56 56 55 55 54 54 53 54 57 56 52 53 52 46 44 44 44 44 44 43 43 47 58 55 55 54 52 52
53 53 53 52 52 53 52 52 51 50 51 51 51 50 50 51 50 51 51 52 50 51 52 45 42 41 41 40 40 44 56 55 56 56 57 57 56 55 55 55 55 56 55 56 55 52 52 52 51 51 52 52 52 48 43 42 41 44 50 57 55 54 51
53 52 52 52 51 51 50 50 51 49 50 51 50 49 49 49 51 51 51 50 50 51 51 42 41 40 40 40 40 43 51 53 55 55 56 57 57 56 56 55 55 56 56 54 55 52 53 52 51 52 51 51 51 50 50 50 50 51 52 52 54 55 52
51 51 51 51 50 49 48 48 49 48 48 48 47 48 48 48 50 50 50 50 50 49 51 42 42 41 40 40 41 49 50 52 52 53 55 55 55 55 55 54 54 54 55 54 51 45 48 53 52 52 51 49 48 47 46 44 40 41 46 49 51 51 50
50 49 49 49 48 47 47 47 48 48 49 47 48 48 49 49 49 49 50 49 48 49 50 48 43 41 40 39 44 49 49 49 49 50 53 53 53 54 54 54 54 54 54 54 49 42 43 47 52 52 51 49 48 48 46 45 41 40 40 40 40 41 40
48 48 48 47 48 47 46 48 48 47 47 48 48 48 48 49 48 48 49 50 49 50 51 50 43 43 41 40 44 50 51 50 50 50 51 52 52 52 53 52 54 54 54 54 46 42 41 47 52 52 51 49 48 49 46 44 45 42 40 40 40 40 40
47 47 46 45 46 47 47 47 47 47 45 45 45 45 46 46 46 48 48 47 50 50 49 48 44 43 42 41 43 48 50 51 50 50 50 50 51 51 51 51 50 51 53 52 45 42 40 46 53 52 51 49 49 49 47 44 45 45 45 46 46 47 44
46 46 46 45 45 44 45 46 46 46 45 45 45 44 44 44 45 45 45 45 47 47 48 48 47 42 42 41 41 47 49 50 50 50 50 50 50 51 50 50 48 42 41 42 43 41 40 41 52 52 51 51 51 50 46 45 46 46 46 46 44 43 42
44 44 45 44 44 44 43 43 44 44 44 45 45 45 44 44 44 44 45 45 45 45 46 45 45 40 41 41 40 41 48 49 50 50 50 49 49 50 51 51 50 45 40 40 41 41 40 40 44 52 51 52 53 48 43 45 45 43 44 43 43 43 43
43 43 44 43 42 42 43 43 44 43 43 42 42 42 43 43 43 44 44 44 45 44 45 43 40 41 40 40 40 39 44 48 48 49 48 49 49 49 50 49 48 44 40 39 39 39 39 39 40 50 50 45 42 39 47 47 46 45 44 43 43 43 43
42 42 42 43 43 41 41 42 42 43 43 42 42 41 41 41 42 42 44 44 44 44 44 44 38 39 38 37 38 38 38 41 40 43 46 47 48 49 48 46 46 43 41 40 40 39 39 38 40 45 42 42 39 40 42 45 44 44 41 42 42 41 41
41 40 40 40 40 40 40 41 41 41 42 41 41 41 41 41 41 41 41 42 43 44 43 43 41 38 38 37 37 37 37 37 37 41 43 44 45 45 46 45 43 40 41 40 40 39 39 39 42 40 41 38 39 41 43 43 43 43 42 41 41 40 40

ECMWFFLT1_sfc_temp_063.txt.gz
Temp
71 69 70 71 71 71 71 71 72 72 73 74 72 73 73 73 73 73 73 73 72 71 71 72 71 70 69 70 67 67 70 71 70 70 67 66 66 66 65 67 68 70 71 70 71 68 65 60 58 60 61 62 63 64 64 64 64 64 63 64 65 65 67
71 71 71 71 71 71 70 70 71 72 71 71 73 72 72 73 73 73 72 72 72 72 73 74 72 72 70 68 67 66 68 69 70 70 69 68 69 67 65 66 69 69 70 71 71 71 67 63 59 59 57 61 62 62 62 63 64 63 66 67 66 65 65
69 69 70 68 69 70 69 69 70 70 71 70 70 72 72 73 73 73 73 73 72 73 73 74 72 71 69 69 69 69 70 69 69 70 70 70 70 69 69 69 68 67 68 68 68 68 69 69 62 59 60 62 58 58 62 63 64 65 67 68 66 68 67
68 68 67 67 68 69 69 69 70 70 71 70 70 70 70 71 71 72 72 72 73 72 73 72 72 72 71 70 70 71 71 70 70 70 69 70 70 69 69 70 70 70 69 67 67 68 68 65 64 61 63 65 62 59 62 65 67 69 70 68 69 68 67
68 68 68 68 69 69 69 69 70 70 70 70 70 70 69 70 71 70 71 71 71 71 71 72 73 73 72 73 72 71 71 71 71 70 70 69 69 70 69 71 71 72 71 71 71 71 70 69 67 62 62 63 65 67 66 65 69 69 70 70 70 69 69
69 70 70 69 70 70 70 69 69 70 70 70 70 70 69 69 71 70 70 71 71 71 71 72 72 72 72 72 72 71 71 70 71 70 70 70 70 70 70 71 72 72 71 72 72 71 71 70 67 63 65 67 62 63 67 68 66 70 71 70 72 72 71
68 69 71 70 70 70 70 70 70 70 70 70 70 70 70 70 71 71 71 71 71 71 71 71 71 71 72 74 72 72 71 71 71 70 70 70 70 70 71 71 71 72 72 72 72 72 70 69 67 66 65 66 67 66 68 69 70 68 68 71 72 72 71
67 69 71 71 69 69 70 70 71 71 71 71 71 70 69 70 69 69 70 70 70 70 70 70 70 70 70 72 73 71 71 71 70 70 70 70 69 69 69 71 71 71 71 72 73 72 73 71 70 68 66 62 62 65 65 69 69 68 68 69 72 71 71
68 68 67 68 69 70 70 70 69 70 71 70 69 68 68 70 69 69 70 69 69 69 70 70 70 71 70 71 71 70 70 70 69 69 70 70 69 69 70 71 71 72 71 72 73 73 74 73 71 70 70 68 64 61 64 63 66 66 70 68 70 71 71
66 65 65 66 68 69 69 69 69 68 68 69 68 67 68 69 70 70 70 69 68 69 69 69 69 70 69 70 71 70 69 69 70 70 69 70 70 70 70 69 71 71 71 71 72 72 72 71 72 72 74 72 71 66 62 62 63 64 66 71 68 69 71
67 67 67 67 67 67 67 67 67 67 68 68 68 67 68 68 68 69 70 69 68 69 68 69 70 69 69 70 69 69 69 69 69 69 69 70 69 70 70 70 71 71 71 71 71 71 71 71 71 72 72 73 73 70 67 64 62 67 66 68 71 69 70
68 68 68 68 67 67 66 66 67 68 67 68 68 67 68 69 68 68 69 69 69 69 69 69 69 70 70 69 69 69 68 69 70 68 68 69 68 69 69 69 70 70 70 70 70 70 70 70 71 72 71 72 71 71 70 69 63 66 70 66 69 72 71
69 68 67 68 68 69 68 68 68 67 67 68 67 68 69 69 69 69 69 70 69 70 70 70 70 70 70 69 70 70 69 70 70 69 69 69 70 70 69 69 70 70 70 71 70 70 70 71 71 72 72 71 70 70 71 71 68 64 68 69 69 70 72
67 68 68 69 69 69 68 68 68 69 68 67 67 68 69 70 71 70 71 71 71 70 70 69 70 71 70 69 69 69 70 71 71 70 69 67 69 70 71 70 70 70 70 70 70 70 71 71 71 71 72 72 71 70 71 70 69 65 65 67 69 71 71
67 68 67 68 68 68 68 67 67 68 68 68 69 70 71 69 70 71 71 71 71 71 71 71 70 71 71 69 68 69 70 71 71 70 69 69 69 69 69 70 70 69 71 71 70 73 73 72 73 73 73 72 73 71 72 72 70 68 64 66 67 71 69
65 66 66 67 68 68 67 67 69 69 69 68 69 70 70 70 70 71 71 70 71 70 71 71 70 71 70 71 71 69 69 71 71 71 70 70 71 70 69 69 69 69 69 70 70 72 72 72 74 75 73 73 72 71 73 73 71 69 67 66 68 69 69
65 65 65 66 66 67 67 67 68 69 69 69 69 68 70 71 70 71 70 70 71 71 70 70 70 72 72 72 72 71 71 70 71 71 71 72 72 71 71 69 68 69 70 69 70 70 71 71 71 73 72 72 71 70 70 69 71 71 70 67 67 72 70
64 65 65 64 64 66 67 67 68 70 69 69 69 69 69 70 70 71 70 71 71 71 71 71 71 70 70 70 71 71 71 71 70 71 71 71 69 72 71 71 70 71 70 70 69 70 71 69 72 72 72 73 72 70 69 70 71 72 70 69 67 70 71
64 65 64 64 64 65 66 67 67 68 70 69 68 69 69 69 71 72 72 73 73 72 72 71 72 72 71 70 70 70 70 70 70 71 70 71 71 71 72 72 70 71 71 71 70 70 70 70 71 70 71 72 74 71 68 68 69 70 71 71 69 66 67
64 65 63 63 64 66 67 67 69 68 69 68 68 68 68 69 69 71 71 71 72 72 71 71 71 70 71 71 71 71 70 70 70 70 70 71 71 71 72 72 71 71 71 72 70 70 69 68 68 69 70 68 70 69 68 69 69 69 69 70 70 70 68
64 65 65 65 66 66 66 67 67 69 69 68 67 68 68 69 69 70 70 70 70 70 70 71 71 71 71 71 70 70 70 69 70 70 69 70 70 71 70 71 71 71 72 72 72 71 70 70 70 69 69 69 69 67 68 68 67 68 68 68 69 68 69
64 65 66 67 67 66 65 64 63 63 65 67 67 67 67 69 69 70 70 70 70 70 70 69 69 69 70 70 70 70 70 71 70 70 70 70 70 70 71 70 70 71 69 64 59 62 65 65 71 70 68 68 68 68 68 68 68 68 68 68 68 69 68
63 63 65 65 65 65 64 62 61 61 60 62 64 64 65 67 69 70 70 69 69 68 68 69 61 54 57 70 71 71 69 70 70 70 69 69 68 68 69 69 68 60 57 55 53 49 50 51 57 66 71 69 68 68 68 67 68 68 68 67 68 68 66
63 62 61 60 61 61 60 60 61 62 62 62 60 59 59 65 67 67 69 69 68 67 67 63 45 44 45 47 64 69 69 69 69 69 70 70 69 68 68 67 66 61 60 57 58 44 46 45 47 47 51 57 63 70 69 67 68 68 67 68 69 68 68
60 58 58 57 56 56 57 58 59 60 61 60 59 59 60 62 64 65 66 67 66 66 66 48 41 41 41 41 48 65 69 69 68 69 70 70 70 70 69 68 67 65 66 67 69 63 53 45 45 45 44 46 48 50 55 67 69 67 66 67 67 67 67
58 57 56 57 57 58 59 58 58 58 58 58 59 60 60 62 64 65 66 67 66 66 64 42 41 40 40 41 41 53 69 68 68 68 69 69 69 69 69 68 68 66 67 58 62 68 69 65 48 43 44 43 44 44 45 44 45 62 71 67 67 67 67
57 56 56 58 59 60 60 59 58 59 58 58 58 58 60 61 62 63 64 65 65 63 60 43 40 40 40 39 40 50 67 66 67 68 69 69 69 69 68 69 69 69 68 67 67 66 67 67 66 64 63 64 66 56 44 43 43 40 50 66 68 67 69
58 57 58 59 59 59 58 58 58 58 61 60 59 59 60 61 60 61 62 63 64 63 54 39 39 39 39 40 41 49 65 64 67 67 68 67 67 66 66 66 66 67 68 68 68 64 66 66 66 65 65 66 66 66 65 65 64 65 65 64 67 69 69
55 55 56 57 57 56 54 53 54 56 57 58 58 59 59 60 60 62 62 63 64 63 52 39 39 40 39 41 40 60 64 65 65 66 66 66 66 66 66 66 66 66 67 67 57 46 53 64 66 65 65 65 65 63 62 49 42 43 52 60 65 66 67
53 53 55 55 54 54 54 54 55 57 57 57 56 55 55 55 56 58 59 60 61 62 56 43 39 39 40 39 48 63 62 65 65 64 65 65 65 66 65 65 66 66 65 67 55 45 42 49 64 65 65 64 64 63 63 55 43 39 39 39 39 39 40
54 53 53 53 53 53 54 55 55 56 56 55 54 55 57 57 56 55 55 54 54 57 56 45 40 40 41 40 47 60 63 63 63 63 64 63 65 65 64 55 58 64 64 65 49 42 40 50 62 63 63 62 62 62 62 58 57 50 40 40 39 39 40
52 52 51 50 50 51 53 54 55 56 56 56 55 56 56 56 55 56 56 55 51 55 55 48 39 39 40 40 48 56 58 61 61 62 63 63 63 64 64 60 52 53 57 53 42 43 40 49 62 64 64 63 62 62 64 60 58 57 56 55 54 53 51
50 50 51 50 50 50 51 52 53 54 55 57 55 54 53 53 53 52 53 55 54 53 53 50 42 38 39 40 41 51 55 57 59 58 59 59 59 61 62 64 59 42 39 38 38 38 40 40 56 62 63 62 62 62 64 60 59 59 56 56 53 52 54
51 51 51 51 51 52 52 53 52 51 51 51 52 50 50 50 50 50 51 52 53 52 50 49 45 37 38 39 38 42 55 54 55 55 56 56 56 57 59 61 64 46 38 38 38 38 39 39 41 55 59 61 63 60 56 59 52 47 55 53 51 52 52
50 50 51 52 52 52 52 53 53 54 54 53 53 52 51 50 50 49 50 50 51 52 51 45 50 41 37 38 37 37 48 51 47 51 53 56 56 57 57 58 60 50 40 39 39 39 38 39 38 47 55 48 40 41 57 57 54 53 52 52 53 52 51
49 50 50 51 51 51 52 52 52 53 53 54 54 53 53 53 53 53 52 52 51 50 51 50 41 46 39 37 37 38 37 41 37 47 51 52 53 53 54 55 56 45 40 39 39 39 39 38 39 47 43 42 39 40 47 53 51 50 51 53 52 49 48
50 50 50 51 51 50 50 51 51 51 52 53 53 53 53 53 54 54 54 54 54 53 53 53 46 40 43 38 38 37 36 36 36 46 48 52 53 52 53 55 51 40 39 39 39 39 38 38 45 41 40 38 38 42 50 48 48 51 50 51 51 49 48

ECMWFFLT1_sfc_temp_069.txt.gz
Temp
69 67 68 70 70 72 75 76 79 79 81 81 81 82 81 81 79 78 78 78 78 78 78 78 76 77 77 77 76 78 77 76 74 71 72 74 71 72 74 73 73 73 71 73 72 69 66 61 62 68 71 71 71 72 72 72 73 72 72 73 74 75 75
70 69 71 72 72 74 73 76 78 80 80 81 82 81 81 82 80 80 80 79 78 78 80 80 78 78 77 74 75 75 75 75 74 71 71 70 73 73 72 72 74 74 73 72 70 69 67 66 65 65 65 70 70 70 70 72 74 73 74 74 76 77 75
71 70 69 69 69 72 72 75 77 77 79 79 80 81 81 82 81 80 79 79 78 78 78 80 78 77 76 75 76 75 75 72 72 71 71 70 73 71 73 73 72 72 74 72 67 70 68 68 63 64 67 66 64 67 71 72 73 74 75 75 76 78 76
70 69 66 67 68 69 72 75 76 77 78 78 79 79 80 81 80 80 80 80 79 79 79 79 77 78 75 76 75 76 75 72 72 72 71 72 72 71 71 72 75 73 69 66 68 69 67 65 64 66 67 70 68 66 69 74 74 76 77 75 75 75 76
69 68 67 67 68 71 74 74 77 78 78 78 78 78 78 79 79 79 79 79 79 78 78 78 76 79 78 78 76 75 74 73 73 71 71 70 72 73 72 72 72 71 72 71 70 63 64 67 68 67 68 71 72 73 74 72 76 77 74 76 77 77 76
68 66 65 66 69 72 74 75 76 77 78 77 78 77 77 78 79 77 78 78 78 78 79 79 79 78 78 78 77 77 74 73 73 73 71 71 71 70 73 73 75 74 71 72 71 70 69 70 69 68 70 72 67 69 74 75 72 76 77 76 77 77 78
67 66 65 65 70 74 76 76 77 77 77 76 77 77 78 79 79 79 79 79 80 80 79 79 79 79 78 79 77 76 77 76 75 73 72 71 71 72 73 73 74 74 73 70 68 71 71 69 65 69 70 70 71 71 74 75 77 74 75 78 78 80 81
67 64 64 67 74 76 77 77 78 79 77 77 78 78 79 79 79 79 79 79 79 79 79 78 79 78 78 78 77 76 77 77 77 75 72 71 71 71 72 72 73 73 71 70 64 69 74 74 72 73 70 67 67 70 70 75 76 75 74 78 81 80 78
65 66 68 74 76 77 77 78 78 78 78 78 79 79 78 79 78 78 79 79 79 79 79 79 78 78 77 77 77 77 76 79 76 75 71 72 71 70 71 72 73 74 73 71 71 73 74 74 75 75 72 72 67 64 69 68 72 74 78 76 79 79 78
67 68 72 75 76 77 78 78 78 79 79 79 78 78 78 79 78 79 79 78 78 78 78 78 78 78 77 77 77 75 76 77 76 76 76 76 75 74 71 71 73 73 72 70 73 74 74 74 76 75 77 73 72 69 65 66 67 69 75 78 74 76 79
70 73 75 76 76 77 77 78 78 78 78 78 79 78 78 78 78 79 78 77 77 78 77 78 79 78 77 77 77 77 77 77 76 76 76 76 75 75 73 73 73 72 69 72 73 74 74 74 77 77 77 78 76 71 69 66 67 72 72 75 77 76 78
75 76 76 77 77 77 77 78 77 78 78 78 78 77 77 78 78 78 78 77 77 77 78 78 78 78 78 77 76 77 77 77 76 75 76 76 76 75 75 73 72 71 71 73 70 73 75 77 77 79 78 78 77 75 72 69 66 71 77 74 77 80 78
77 77 77 76 76 77 78 78 77 76 76 78 78 78 79 78 78 77 78 77 77 77 78 78 79 78 77 77 77 77 77 77 77 76 76 77 78 76 75 72 73 71 70 75 77 76 77 79 80 80 79 78 77 76 74 71 68 67 74 75 76 78 79
75 76 77 77 76 77 77 77 77 76 78 77 78 78 78 78 79 78 79 78 78 77 77 77 78 77 78 78 78 77 78 78 77 77 76 75 78 76 74 73 72 75 76 76 75 77 78 80 80 80 79 79 78 78 75 72 71 70 74 77 76 78 79
76 76 75 76 76 77 77 77 77 77 76 78 78 79 79 79 79 79 79 79 78 79 78 79 79 79 78 77 77 78 78 78 77 76 76 76 76 77 75 75 74 74 76 76 76 80 80 79 81 81 80 79 79 78 80 78 73 71 68 73 75 79 78
75 75 74 74 75 76 77 77 78 77 77 77 78 78 79 78 79 79 79 79 79 79 79 79 78 79 77 77 78 78 78 77 76 75 75 76 78 78 75 74 76 77 77 76 77 78 78 80 82 82 79 81 79 78 81 79 75 71 70 71 75 76 75
75 74 74 74 74 75 76 76 78 77 77 77 77 78 79 79 79 79 78 79 79 79 79 78 79 79 79 79 78 78 78 77 77 76 75 77 78 77 76 75 75 76 76 76 77 77 78 79 80 80 79 78 77 77 77 77 78 73 73 71 73 77 77
74 73 74 74 74 75 75 76 76 76 76 76 78 78 78 80 79 79 77 79 79 79 79 79 79 79 78 78 79 78 78 79 78 78 77 77 75 76 75 75 75 76 76 75 76 77 78 77 81 78 78 79 78 77 76 77 77 78 74 71 72 76 77
74 74 74 74 74 75 76 76 75 74 76 77 77 78 78 79 80 80 80 80 80 80 80 80 80 79 79 79 78 78 78 78 78 79 78 78 78 78 77 77 77 77 77 75 75 76 77 77 79 78 78 80 81 78 76 76 76 76 76 75 73 72 75
75 75 75 75 75 76 77 76 76 76 77 77 77 77 78 79 79 80 80 80 80 80 80 79 79 78 79 79 78 78 77 77 78 78 79 79 79 78 78 78 77 77 76 77 76 75 76 76 76 76 77 76 78 77 74 76 76 76 74 74 75 74 75
74 76 76 76 76 76 76 76 77 77 77 77 76 78 78 78 78 80 80 80 80 80 79 80 80 79 80 79 77 78 77 77 77 77 78 79 79 79 79 79 78 79 78 77 76 77 77 76 76 76 77 77 77 76 75 75 75 75 74 73 73 72 74
64 72 74 72 75 75 76 76 77 77 77 76 77 78 78 78 78 79 79 79 79 79 78 78 77 76 79 78 78 77 77 78 77 77 77 78 78 78 79 79 79 77 71 62 55 59 59 61 74 75 76 76 76 75 74 75 75 75 75 73 73 72 71
64 63 72 73 74 74 76 76 75 76 76 76 77 77 78 77 78 78 77 78 78 77 77 71 52 43 49 67 76 79 77 77 77 77 77 76 77 78 78 77 73 60 58 58 55 51 49 49 52 65 71 74 74 74 74 73 74 75 74 73 72 72 69
64 64 70 73 73 73 74 75 75 75 75 75 74 75 76 77 77 77 78 77 76 75 70 59 42 41 42 42 62 75 77 77 78 77 77 76 76 76 77 78 76 69 67 64 61 43 47 50 49 46 47 49 57 69 72 71 72 72 72 72 71 72 71
63 63 62 65 68 70 72 73 73 74 73 72 72 73 73 74 74 75 76 76 74 69 61 44 40 42 41 41 45 61 73 77 76 77 77 77 77 77 76 77 77 75 76 75 76 69 60 48 50 51 50 50 48 45 50 65 70 71 71 70 69 70 70
60 60 61 62 64 65 66 68 70 71 70 71 71 71 71 71 71 72 73 71 67 63 58 42 41 41 42 41 41 51 71 76 77 77 77 77 77 77 77 76 76 76 78 66 73 76 76 70 51 42 44 44 45 46 46 44 49 65 71 70 69 68 69
60 60 60 60 61 61 62 63 64 66 66 67 66 66 66 66 67 68 69 66 60 55 51 43 40 40 41 40 40 45 68 72 76 77 77 77 77 77 77 76 75 72 73 72 74 74 75 74 73 69 68 71 72 64 48 44 42 39 50 66 68 68 71
63 62 61 61 60 60 60 61 62 62 62 62 62 62 63 63 64 67 65 61 56 52 48 39 39 39 40 40 39 45 67 71 74 74 74 75 76 76 76 75 75 73 67 62 66 63 71 73 71 69 69 69 70 71 72 69 68 68 65 66 69 70 71
65 65 63 62 60 59 60 61 61 60 60 60 60 61 62 64 63 65 62 60 57 54 49 38 39 39 39 40 41 62 70 72 73 74 73 74 75 75 75 74 73 72 74 65 55 44 54 67 71 70 68 68 65 64 62 56 42 47 60 67 68 66 65
61 63 63 62 60 59 60 60 61 63 61 61 61 61 61 61 63 63 62 61 58 55 51 42 38 39 39 38 48 67 70 72 73 73 73 73 74 68 65 63 66 71 65 62 45 41 41 49 69 69 69 69 66 65 63 60 49 43 42 43 41 44 43
62 61 62 62 59 58 58 59 60 61 61 60 62 64 63 61 58 56 57 57 57 54 51 43 38 39 39 38 44 62 70 70 70 70 71 72 72 67 59 54 62 66 63 56 39 40 38 50 64 67 67 66 63 62 63 64 63 57 39 39 38 38 41
60 60 60 59 58 57 56 58 60 60 58 60 62 64 63 61 59 56 56 56 55 54 52 47 39 38 38 39 46 61 67 70 69 65 66 64 70 68 60 54 46 50 53 45 38 39 39 46 61 65 66 65 63 63 65 66 63 64 64 64 62 59 57
63 63 62 61 61 61 60 59 60 60 60 59 55 57 59 59 58 59 59 59 59 58 55 51 44 38 39 41 39 55 68 68 68 67 68 68 68 69 65 60 51 39 38 38 39 37 40 37 51 59 62 65 65 63 62 65 64 63 64 66 67 65 66
64 64 63 61 61 59 60 60 60 60 60 60 58 56 56 58 59 59 59 58 56 56 56 55 47 38 41 41 41 49 64 61 62 65 67 68 69 69 68 63 57 41 38 38 38 36 38 37 38 50 57 63 57 49 50 64 62 53 66 67 67 66 67
63 63 64 64 64 64 65 67 68 66 64 62 60 60 59 59 58 56 57 56 56 55 53 50 54 43 39 40 40 41 55 56 51 56 61 64 64 64 64 63 57 44 38 39 38 38 37 38 37 48 57 43 40 40 52 57 64 67 66 67 67 66 66
61 62 62 64 64 64 65 66 66 66 65 64 63 62 63 63 62 61 60 59 58 58 57 54 46 49 40 40 38 40 38 46 40 53 59 61 62 63 63 61 57 43 38 38 39 38 38 37 40 52 40 39 40 38 45 61 64 64 65 66 66 65 65
61 62 62 63 63 62 63 64 65 65 66 66 65 65 65 65 65 64 63 63 63 62 61 59 48 45 45 38 40 39 40 37 38 48 51 60 61 62 60 58 53 39 38 38 38 39 39 39 48 42 38 39 38 41 53 57 58 61 58 58 59 60 62

ECMWFFLT1_sfc_temp_072.txt.gz
Temp
65 65 68 69 69 69 68 68 68 68 70 72 75 77 77 75 75 74 73 73 74 75 75 73 71 71 73 74 73 73 72 70 70 67 66 66 66 66 68 66 67 69 69 67 64 62 60 57 58 64 66 65 65 65 66 67 68 67 66 67 68 68 66
67 68 69 69 67 68 68 68 69 71 72 75 77 76 76 77 75 75 74 74 73 74 75 74 73 74 73 71 71 71 70 70 70 69 68 67 67 65 66 66 68 67 67 67 66 65 61 58 58 60 60 65 65 66 66 68 68 68 67 68 70 69 67
67 68 69 67 67 69 69 69 70 71 73 74 75 76 76 77 76 76 75 75 73 74 73 74 73 72 72 71 71 71 70 69 69 68 68 67 67 68 68 67 65 65 64 63 64 64 63 62 59 60 62 61 60 63 66 66 68 68 69 69 70 69 68
67 67 67 67 68 69 70 71 71 72 73 73 74 75 76 77 75 75 75 75 74 73 74 72 71 72 72 71 72 72 71 69 67 67 68 68 68 68 69 67 65 65 63 60 61 63 63 60 60 61 63 65 63 61 65 69 69 70 71 70 68 67 69
68 67 67 68 68 69 70 70 71 71 72 73 73 73 74 75 74 74 74 74 74 73 73 72 71 71 71 72 71 70 70 70 69 69 68 67 68 68 67 67 66 66 65 65 64 64 64 63 63 60 62 65 66 67 69 66 71 71 71 71 70 70 70
67 67 67 68 68 69 70 70 70 70 71 71 71 72 72 74 73 73 73 72 72 73 73 74 72 71 71 71 71 71 70 69 69 69 68 68 68 65 66 67 67 67 67 67 67 65 65 66 64 62 65 67 62 65 68 68 65 70 71 71 72 72 71
67 67 67 68 68 69 71 70 71 71 71 71 72 71 73 74 74 74 74 74 74 73 74 73 73 73 72 71 72 71 71 70 70 69 68 69 68 68 67 66 67 68 67 68 67 67 66 66 63 64 63 64 65 65 69 69 69 65 65 68 74 74 72
66 66 66 67 68 69 70 72 72 72 71 72 72 73 74 74 73 74 74 73 74 73 73 73 74 73 71 72 71 70 71 71 70 69 69 69 69 69 69 68 67 68 68 67 65 66 67 66 65 64 65 61 61 62 62 68 67 66 65 70 74 71 70
67 67 66 67 68 69 71 72 72 72 72 72 73 73 73 73 73 73 73 73 73 73 73 73 73 72 72 71 70 69 69 73 69 70 69 69 68 68 68 69 68 67 68 67 66 66 68 66 66 66 66 64 61 59 62 62 65 66 72 70 71 72 70
67 67 66 67 68 70 72 72 72 73 73 73 73 73 73 73 72 72 72 72 73 73 72 73 73 73 72 71 71 70 70 71 69 70 68 68 68 68 67 68 68 67 67 67 68 69 69 67 68 68 69 65 65 61 58 59 62 64 70 72 67 69 71
68 69 69 69 70 71 72 72 72 72 72 74 74 74 73 72 73 74 72 71 72 72 72 73 74 73 72 71 72 71 72 71 70 69 69 70 67 68 68 69 67 67 67 68 68 69 68 68 68 69 68 68 68 63 62 59 60 65 63 69 70 67 69
70 70 71 72 72 72 72 72 72 72 73 72 72 72 72 72 72 72 71 71 72 72 73 72 72 71 72 70 71 70 71 71 70 69 69 70 69 69 68 68 67 66 66 67 68 67 67 68 68 70 69 69 68 67 65 62 58 63 66 63 67 72 69
72 72 72 72 72 72 73 73 73 72 72 73 72 73 72 72 72 71 72 71 72 72 72 72 73 72 71 71 71 71 71 71 71 70 70 71 73 70 68 68 67 66 66 67 66 67 67 68 70 69 69 69 68 67 65 64 61 61 65 65 66 70 71
71 73 73 73 72 72 72 72 72 72 72 71 72 72 72 73 73 72 73 72 72 71 71 72 72 72 71 71 71 71 72 72 72 70 70 69 73 71 70 68 68 68 68 65 65 67 69 71 70 70 70 68 67 68 66 63 61 60 63 65 65 69 71
72 73 72 72 72 72 72 72 71 72 71 72 73 74 74 73 73 73 73 73 72 72 72 72 71 71 72 70 70 73 72 73 72 70 70 70 70 72 69 68 69 68 68 68 67 72 73 72 73 72 71 70 69 68 69 67 63 60 59 65 64 69 68
72 72 71 71 72 72 71 72 73 71 71 72 73 73 73 72 73 74 74 72 72 72 72 72 71 72 70 71 71 72 71 70 69 69 70 69 72 71 69 68 68 68 70 69 69 70 71 72 74 75 71 71 69 69 71 69 65 61 61 62 63 66 65
71 71 71 71 71 71 72 71 72 72 73 72 73 74 74 74 73 73 72 73 72 72 72 72 73 73 73 73 72 71 70 70 70 70 69 70 72 71 69 68 67 69 69 67 69 69 70 70 70 72 70 69 68 69 68 67 66 63 61 62 62 68 67
70 70 70 71 71 71 71 71 71 73 72 72 73 73 73 75 74 73 72 73 73 72 73 73 72 72 72 72 73 71 71 70 70 70 70 69 71 70 67 66 66 68 69 69 67 68 69 68 74 71 70 70 69 68 68 67 67 68 64 62 63 65 66
69 70 70 70 70 70 70 70 70 71 72 72 71 73 72 74 75 74 74 74 73 74 74 72 73 72 72 72 71 72 71 70 70 71 70 70 70 70 68 67 67 70 70 68 67 69 70 71 71 70 70 71 72 70 68 66 67 66 66 64 64 63 64
66 68 69 69 70 71 70 70 71 71 72 72 72 72 73 73 73 74 74 74 73 73 73 73 72 71 73 73 72 72 71 72 71 70 70 71 71 71 71 71 69 69 69 69 69 68 68 67 68 68 68 68 70 67 66 67 68 67 67 65 64 64 63
65 66 69 70 71 71 71 71 71 72 72 71 71 73 73 73 72 74 73 73 73 72 72 72 72 72 73 72 71 71 72 71 71 72 71 71 71 70 71 71 70 70 69 67 68 67 67 66 67 67 67 68 66 66 66 66 66 65 66 65 64 63 63
64 65 67 70 70 70 71 70 71 71 71 71 72 72 73 73 73 73 74 73 73 71 62 56 53 55 65 70 71 70 72 72 70 70 71 70 71 71 70 69 67 65 64 60 56 58 58 61 67 65 65 66 66 64 65 65 66 63 63 64 61 64 62
64 64 65 66 68 69 70 70 70 70 71 71 71 72 72 73 73 73 72 72 69 63 59 53 45 42 46 60 67 72 71 69 70 70 70 68 69 71 69 66 65 63 59 58 53 49 48 51 55 61 61 63 64 64 63 63 62 63 63 61 61 61 60
65 65 65 65 67 68 69 69 69 70 70 70 70 70 70 72 71 71 72 68 63 59 53 48 41 40 41 42 60 65 68 69 70 70 69 67 68 68 69 68 65 64 64 62 54 46 47 46 44 45 46 49 55 61 62 61 61 62 63 61 61 60 60
63 63 63 64 66 67 68 68 68 68 68 68 68 69 68 68 68 68 64 63 61 57 53 43 40 41 41 40 44 60 66 67 68 68 69 69 68 69 68 67 67 68 67 66 64 61 54 48 48 45 44 45 45 44 48 59 61 60 60 60 61 60 58
59 60 61 62 63 63 65 66 67 67 66 66 67 66 66 67 66 65 63 60 58 56 52 41 40 40 41 41 40 52 67 66 66 67 69 70 70 69 69 68 68 69 72 68 69 67 65 58 45 41 45 50 51 54 50 46 49 56 58 58 59 59 61
59 59 59 60 60 61 62 62 63 63 64 64 64 64 65 65 64 61 59 58 55 52 48 42 39 40 41 40 40 46 65 65 66 68 69 68 67 64 63 61 62 61 61 63 60 57 63 65 63 63 63 63 65 57 48 50 49 42 47 57 59 60 60
58 58 58 58 59 59 59 59 60 60 60 60 60 61 62 62 61 59 57 56 53 49 45 39 39 39 40 41 40 47 62 66 66 67 68 67 64 62 62 62 62 61 61 62 52 49 53 59 62 61 60 61 62 61 60 60 60 59 59 59 59 61 61
58 58 58 58 58 58 58 58 57 57 58 58 59 59 59 60 59 58 57 56 54 51 47 39 39 39 40 39 43 61 65 66 66 67 68 65 62 61 61 60 60 60 61 58 44 41 44 52 61 62 60 59 58 59 61 58 53 51 53 55 56 55 55
58 58 59 59 58 59 59 58 58 59 58 58 57 56 55 56 59 58 56 54 52 50 48 41 38 39 39 38 48 61 64 65 66 66 62 60 61 58 57 59 61 60 58 50 40 39 40 48 60 62 61 59 57 57 58 61 55 45 42 43 43 44 44
57 56 56 56 56 56 56 56 57 58 58 57 57 56 56 56 55 55 54 53 53 50 49 43 39 40 40 39 45 59 62 64 64 63 61 59 58 54 51 51 56 57 53 47 38 39 39 50 57 59 60 59 56 56 57 60 62 58 43 42 42 41 41
56 56 56 55 55 55 55 54 55 55 56 57 57 58 57 56 55 55 54 53 52 51 49 46 41 40 41 42 48 59 61 62 62 62 61 58 57 53 50 47 45 45 47 41 37 37 38 47 55 55 56 57 57 57 55 56 57 58 58 57 56 53 50
56 56 56 57 58 56 55 55 55 56 57 57 57 57 56 55 53 52 53 53 53 52 50 48 44 41 42 43 45 58 58 58 57 59 62 62 59 56 55 53 47 39 38 38 37 37 37 39 50 52 54 56 56 54 52 53 56 58 59 58 58 57 56
58 57 56 55 56 55 55 54 56 57 56 56 56 54 54 54 53 52 51 51 50 50 50 49 45 41 43 43 44 49 55 53 54 57 60 60 60 58 57 54 51 40 39 39 38 38 38 37 39 49 52 55 51 48 44 51 55 51 57 57 57 57 58
60 60 60 60 58 57 57 58 58 58 58 57 56 55 54 53 53 52 53 52 51 51 52 50 50 43 42 42 42 44 52 51 49 56 57 58 58 57 55 53 52 43 39 40 39 39 38 39 36 44 50 40 39 39 45 50 52 55 57 57 57 56 58
59 60 59 59 59 59 60 60 60 60 59 58 57 56 56 55 54 53 53 53 53 52 52 50 47 49 42 42 41 41 41 46 44 54 55 56 55 55 54 54 52 43 39 40 40 39 40 37 39 47 39 37 39 37 40 50 54 55 56 57 57 56 54
59 59 59 59 59 59 59 60 60 60 61 60 59 58 58 58 57 56 55 54 54 54 53 52 46 45 46 41 40 38 37 39 41 46 52 56 56 54 53 52 48 39 39 40 40 39 39 39 44 43 39 38 36 38 45 50 50 54 51 51 52 53 53

ECMWFFLT1_sfc_temp_075.txt.gz
Temp
64 63 64 64 65 66 66 66 65 65 67 68 68 68 69 68 67 66 66 67 67 68 69 68 66 66 68 68 67 68 67 66 65 63 62 63 61 62 63 63 63 64 64 61 61 59 58 56 57 61 62 62 63 63 63 63 63 64 64 63 64 63 63
64 63 64 65 65 65 64 64 65 65 66 67 68 70 69 68 68 67 68 68 67 68 69 68 67 68 68 66 66 66 66 65 66 65 64 62 63 62 61 61 62 61 61 62 62 61 56 56 56 58 58 61 61 62 62 63 64 64 64 64 65 64 63
62 63 64 64 64 64 64 64 64 64 65 67 68 70 69 69 68 68 67 67 67 68 68 69 68 67 67 67 66 66 65 65 65 65 64 63 64 64 63 62 62 60 60 60 60 59 59 59 56 56 56 56 56 58 61 62 64 64 65 64 64 64 63
63 63 63 62 63 64 64 64 64 65 66 67 68 69 70 70 69 69 68 67 68 68 69 68 67 68 66 67 67 66 65 65 64 64 64 63 64 63 63 63 62 62 60 57 59 59 58 57 56 56 58 58 58 58 60 63 64 65 66 64 63 62 62
64 64 63 62 63 64 65 65 65 66 66 68 68 68 69 70 69 68 69 69 68 67 67 66 67 68 68 67 66 66 65 65 65 65 64 63 63 63 62 62 61 62 60 61 61 61 60 59 59 57 57 59 60 60 64 62 65 65 65 65 65 64 63
64 64 64 64 64 65 65 65 65 66 66 66 66 67 67 68 68 68 68 67 67 67 67 68 66 68 67 66 66 66 65 65 65 65 63 63 63 62 62 62 62 62 62 62 63 62 61 61 61 58 60 62 57 59 62 63 60 64 66 65 66 64 63
64 64 64 64 65 65 66 66 66 66 66 66 66 67 68 69 68 68 69 69 69 68 67 67 67 67 67 66 66 66 66 65 65 64 64 64 64 63 63 62 62 62 62 63 62 62 61 61 59 60 59 60 61 60 63 62 64 62 63 64 66 65 64
64 64 63 64 65 65 65 66 66 67 66 66 67 67 69 69 68 67 68 68 67 67 67 66 67 66 66 66 66 66 66 66 65 65 64 65 65 64 63 63 63 63 62 62 62 63 63 63 62 61 61 57 57 58 58 62 62 62 62 63 67 64 63
63 64 64 63 64 65 66 66 66 66 66 67 67 68 68 68 67 68 68 67 67 67 67 67 66 66 65 65 65 65 65 68 65 65 64 65 64 64 64 63 64 63 63 63 64 62 62 63 63 62 61 62 58 55 56 56 58 59 65 61 63 64 62
63 63 63 63 64 64 65 66 67 67 67 67 67 67 67 67 67 67 67 66 66 67 66 66 66 66 65 65 65 64 65 65 65 65 64 64 64 63 63 64 63 62 63 63 63 63 63 63 63 62 64 61 60 58 54 52 54 57 62 64 59 60 63
64 63 63 63 63 64 64 65 66 66 66 68 68 68 67 66 66 68 65 65 65 66 66 65 67 66 64 64 65 64 64 64 63 63 63 64 64 64 63 63 63 62 63 63 62 63 63 63 62 64 64 61 62 60 56 55 55 57 59 61 61 59 61
63 63 64 64 64 64 63 65 66 66 67 66 66 66 66 65 65 65 65 64 65 65 63 65 65 64 64 64 63 63 64 64 63 63 63 64 64 64 63 62 62 61 62 62 62 64 64 63 63 63 63 64 63 62 59 58 55 57 62 59 60 63 62
63 64 64 63 64 64 65 66 66 66 66 66 66 66 65 66 65 65 64 64 63 63 66 66 64 64 65 64 64 66 65 65 64 63 63 64 66 64 63 62 61 61 60 61 62 63 63 62 62 63 65 63 62 62 61 57 55 58 59 59 60 62 63
64 65 65 65 65 65 66 66 66 66 66 66 66 65 65 65 66 66 65 64 63 62 62 63 65 64 64 63 63 64 63 65 65 63 64 64 65 64 63 62 61 62 61 62 61 62 62 63 63 63 64 62 62 62 63 58 57 56 58 60 60 61 63
65 65 65 66 66 66 67 67 67 67 67 66 67 66 66 66 66 66 65 63 63 62 64 65 63 63 63 62 62 66 64 64 64 64 64 64 64 65 63 62 62 61 62 62 61 64 63 63 64 63 63 64 63 64 61 57 55 53 56 57 57 61 61
66 65 66 66 65 66 66 67 68 67 66 66 66 66 67 68 67 67 65 63 63 63 64 64 61 63 64 63 62 62 63 64 63 62 62 64 65 65 63 62 61 62 63 63 62 61 62 63 65 67 64 64 64 63 62 62 58 56 57 56 58 60 60
66 64 65 64 65 65 66 66 67 67 67 67 66 65 69 68 67 66 64 64 64 63 63 63 63 65 64 62 64 64 62 62 62 62 63 64 65 64 63 62 62 62 62 61 61 61 62 62 63 63 62 60 61 62 59 62 64 57 55 59 58 62 60
62 62 63 65 65 65 66 67 66 67 67 66 65 67 68 66 66 66 65 65 64 63 64 63 64 63 62 63 64 64 63 62 62 62 62 64 65 63 63 63 63 62 60 62 61 61 63 62 67 65 65 64 63 63 62 62 62 63 59 59 58 59 61
62 62 63 65 66 66 66 66 65 65 66 65 65 67 66 65 67 66 65 66 63 64 64 63 63 62 63 62 61 62 62 63 63 63 63 63 63 63 62 62 61 61 61 60 60 60 61 62 62 61 62 65 65 62 62 60 60 58 59 58 57 58 57
61 61 63 65 65 65 65 65 66 66 66 66 65 66 65 66 65 66 64 64 64 63 61 60 61 62 62 62 63 63 64 63 63 63 62 63 64 63 63 62 61 61 60 60 61 60 60 61 62 60 61 64 62 62 60 60 61 61 61 59 55 57 59
60 62 64 66 65 65 65 66 65 65 66 66 65 66 66 67 67 64 62 60 58 58 56 54 55 58 61 62 62 62 62 61 62 63 63 63 63 63 62 61 61 60 60 60 60 59 61 61 60 60 59 61 61 60 58 58 57 56 57 58 58 57 57
60 62 63 65 65 65 65 64 64 65 65 65 65 65 67 66 64 62 61 59 57 55 53 50 47 49 57 61 60 62 62 63 63 63 62 63 63 62 61 60 59 59 60 59 55 56 57 59 61 59 58 58 58 57 57 59 56 56 56 55 56 57 56
61 61 62 64 64 64 63 64 64 65 65 63 62 64 66 64 62 60 58 57 55 52 49 48 45 43 47 60 60 63 61 62 61 62 64 63 62 62 62 61 61 61 58 57 54 50 49 52 56 59 59 58 57 58 57 56 56 56 56 55 56 56 54
60 61 62 63 62 63 64 64 64 63 62 62 62 61 62 61 60 59 58 56 52 49 47 45 42 40 42 47 59 60 61 60 59 62 63 63 61 61 60 60 58 60 58 56 52 47 47 47 47 48 49 53 58 59 55 54 55 55 55 55 54 53 53
58 58 59 61 63 64 64 63 63 62 62 62 62 61 60 59 59 58 56 54 51 49 46 42 39 40 42 42 48 58 61 62 62 60 61 61 61 60 60 60 61 61 61 59 57 54 49 44 42 43 44 45 45 45 50 58 55 52 52 53 53 54 53
57 57 57 59 61 62 62 62 62 62 61 61 61 60 58 57 56 56 54 52 49 48 46 40 39 40 41 42 43 54 61 61 61 61 61 61 60 60 60 59 59 59 59 58 56 56 55 53 46 45 48 49 46 46 44 44 48 55 53 52 54 52 54
57 56 57 57 59 59 59 59 59 59 60 60 59 57 56 55 54 53 52 50 48 47 45 41 39 40 40 41 44 53 60 61 61 61 60 61 61 60 59 58 58 57 56 52 51 52 54 56 56 57 57 56 55 52 48 45 42 41 48 56 54 55 52
56 57 57 57 57 57 57 57 57 57 57 57 57 55 54 53 52 51 50 49 48 46 44 40 40 40 40 41 43 53 61 62 61 60 59 59 60 59 59 59 58 57 55 50 47 46 51 54 55 56 55 55 54 55 54 56 55 53 52 52 51 53 54
56 57 56 56 56 56 56 56 56 55 55 55 56 55 54 53 51 50 50 49 48 47 45 40 41 41 41 41 48 60 62 61 59 57 58 58 58 58 58 58 57 55 52 49 43 39 42 51 57 55 54 53 53 53 54 55 52 51 53 54 54 53 52
56 56 56 57 56 56 56 56 55 55 55 54 53 52 51 51 51 51 50 49 49 48 47 43 41 41 41 41 53 60 61 60 58 57 56 55 54 54 56 57 55 52 50 47 40 39 41 51 56 55 54 54 54 54 55 56 52 49 46 44 43 43 43
54 54 54 54 54 54 54 55 55 55 54 53 51 51 51 50 50 50 49 49 49 48 47 44 42 42 43 45 52 59 60 59 57 55 53 52 51 50 51 53 54 51 49 46 38 39 42 52 54 53 53 52 53 53 53 53 54 55 47 42 41 41 41
53 53 53 52 53 53 53 53 53 54 53 53 52 52 52 52 51 50 50 49 50 48 47 46 43 43 44 45 52 56 58 58 56 54 52 50 50 50 49 46 46 46 47 41 37 38 40 49 53 51 50 50 50 49 48 49 50 50 53 55 55 52 49
53 52 52 52 52 52 52 52 53 53 53 53 52 51 50 49 49 48 49 49 49 48 47 46 44 43 44 45 47 54 54 55 54 54 53 52 50 50 50 49 44 38 38 38 37 36 37 41 49 48 48 48 48 49 48 47 48 49 51 51 53 53 54
53 53 53 52 52 52 52 52 52 53 52 52 51 50 50 49 48 47 47 48 47 47 47 46 44 42 43 44 45 48 51 51 52 53 53 52 51 50 49 47 45 40 39 38 37 36 36 36 38 44 46 48 49 46 41 46 47 46 49 50 52 52 54
55 55 54 53 53 53 54 54 54 53 53 52 51 50 50 50 49 47 47 47 47 47 48 48 48 43 42 42 42 45 49 47 48 53 52 50 49 48 47 46 45 41 40 40 39 39 37 36 33 41 44 39 38 38 43 44 45 46 48 49 49 50 50
53 54 54 54 52 51 52 54 55 55 53 52 52 51 50 50 49 48 48 48 47 47 46 47 44 46 42 42 41 41 42 44 43 50 49 48 48 47 47 47 46 42 38 39 39 39 40 38 39 41 38 36 37 36 36 42 44 46 46 47 48 48 48
51 51 51 50 49 48 47 48 48 50 52 52 51 51 50 50 49 49 48 47 47 47 47 47 44 43 44 42 42 41 41 40 41 46 47 46 45 44 45 44 42 37 38 38 38 38 39 41 42 41 38 35 35 36 41 44 44 47 45 45 46 46 47

ECMWFFLT1_sfc_temp_078.txt.gz
Temp
62 63 63 64 65 65 64 63 64 64 65 65 65 65 65 65 65 64 64 64 64 64 64 64 64 64 64 64 64 65 65 64 64 62 61 61 61 61 60 59 59 60 61 57 59 58 58 55 57 60 60 59 60 60 61 62 62 61 60 60 60 60 60
62 62 63 64 64 65 64 63 63 64 64 65 66 65 65 65 66 64 65 64 64 64 66 66 65 65 65 64 63 63 64 63 64 63 62 61 61 60 59 57 59 59 58 59 60 58 57 57 56 57 58 59 60 60 59 60 61 62 62 61 62 61 59
62 62 62 63 63 63 63 63 63 63 64 64 65 66 65 66 65 65 65 65 64 65 65 66 65 65 65 64 64 64 64 63 62 63 63 61 61 60 61 60 59 57 58 58 57 57 58 56 56 57 58 57 56 58 60 61 62 62 62 61 61 60 59
62 62 62 62 62 62 62 62 62 63 63 63 64 65 65 66 65 65 65 65 65 66 66 65 65 65 64 64 64 64 64 63 62 62 61 61 61 60 60 61 60 61 59 56 57 58 57 55 57 57 58 58 57 56 60 62 62 62 62 61 60 59 58
62 63 62 63 63 62 62 62 62 62 62 63 64 64 65 66 65 65 65 65 65 65 65 65 65 65 65 65 64 64 63 63 62 63 62 61 60 61 60 60 61 61 58 59 59 59 58 57 58 56 56 56 58 57 61 60 62 62 61 61 60 59 59
62 62 62 62 63 63 62 62 62 62 62 63 63 64 65 65 65 64 64 64 64 65 64 64 65 65 65 64 64 63 63 63 62 62 61 61 61 61 61 60 61 60 60 59 60 59 59 59 58 55 55 58 54 56 58 59 58 61 61 61 61 60 59
62 62 62 63 63 63 63 63 63 63 63 64 65 65 65 65 64 65 65 65 64 64 64 65 65 66 65 64 64 63 63 63 62 62 62 60 60 60 61 60 60 60 59 60 60 60 59 58 56 57 56 56 56 57 58 57 59 59 60 60 61 60 59
62 62 62 63 63 63 63 63 63 63 64 65 66 65 65 65 65 65 65 64 64 64 64 64 66 65 65 65 64 64 63 63 63 63 61 61 62 61 60 61 60 60 60 60 60 60 61 61 60 59 58 55 54 55 55 57 58 57 57 58 61 59 58
62 62 62 62 63 63 63 63 62 63 64 64 65 65 65 66 65 65 65 65 64 64 64 64 64 64 64 64 63 63 63 65 63 62 62 62 62 61 60 60 61 60 60 60 61 61 61 61 61 60 60 59 56 52 54 54 55 56 60 57 59 59 58
62 62 62 62 61 61 61 62 62 62 64 65 65 66 65 65 65 65 65 64 64 64 63 64 64 63 63 63 63 62 62 62 63 62 61 62 61 60 60 60 61 60 60 60 60 61 61 61 62 61 62 61 60 56 52 51 53 53 57 59 55 57 59
62 62 61 61 61 61 61 62 62 62 62 65 66 66 64 64 65 66 64 63 63 63 63 63 63 62 62 62 63 63 63 63 62 60 61 62 61 60 60 60 59 59 59 60 60 60 61 61 61 61 61 59 58 58 54 53 52 53 55 58 55 55 56
63 62 62 62 62 62 62 62 62 62 62 63 64 63 63 64 64 63 64 62 63 63 62 63 62 62 62 62 61 61 61 62 62 61 60 62 60 61 60 60 59 59 58 60 59 59 59 61 62 61 59 60 60 58 56 54 51 54 57 55 56 58 57
62 62 62 62 62 62 62 62 62 62 62 65 64 64 64 63 63 63 63 63 62 62 63 62 62 62 62 62 62 62 61 62 62 62 61 60 63 61 60 60 59 60 59 59 59 59 59 60 60 60 61 60 60 59 58 57 54 53 56 55 54 57 58
61 62 62 61 62 62 62 62 62 64 64 64 64 65 65 64 64 65 64 63 62 62 62 61 61 62 62 61 61 61 61 62 62 61 61 60 62 60 60 60 59 60 58 60 59 60 61 60 60 62 62 60 60 59 59 57 54 52 54 53 54 56 57
62 62 61 61 61 62 62 62 63 63 65 65 66 66 65 65 65 65 64 62 62 62 62 61 60 62 62 61 60 63 62 61 62 61 60 61 60 62 60 60 59 59 59 60 59 62 62 61 61 61 60 61 60 59 59 58 53 53 52 54 52 55 55
62 62 61 61 61 61 62 62 63 65 65 65 66 66 66 65 65 65 63 62 62 62 63 61 60 62 61 61 60 60 61 61 61 60 60 61 61 60 60 59 59 59 60 59 59 60 60 60 60 62 62 61 62 60 60 61 56 54 54 52 53 55 55
62 62 61 61 61 61 62 62 63 66 66 65 65 66 66 66 65 64 63 62 63 63 61 61 61 61 61 60 60 61 60 61 61 61 61 61 61 61 60 59 59 58 59 59 59 58 58 58 59 62 61 59 61 59 59 61 63 54 51 54 53 56 55
61 60 60 60 61 61 61 62 64 67 65 65 65 65 65 66 65 65 64 64 64 63 62 62 61 59 60 61 61 60 60 60 61 61 61 62 63 61 60 60 59 58 57 59 59 59 58 57 60 60 60 59 59 58 58 60 60 59 57 56 54 54 54
60 60 60 61 61 61 61 62 65 66 66 65 64 65 65 65 66 65 65 65 63 62 61 61 62 61 61 59 59 59 60 60 60 61 61 62 62 61 60 58 59 58 59 59 58 58 58 57 57 57 59 59 60 58 58 56 58 58 58 56 55 53 52
59 60 60 61 61 62 62 62 66 65 64 64 64 63 64 65 63 63 61 61 60 59 58 57 57 58 60 59 60 60 60 61 61 61 61 61 60 59 59 60 58 58 57 56 58 58 57 56 57 56 57 58 58 58 57 57 57 57 56 56 52 54 55
60 60 60 61 62 61 61 62 64 64 64 64 64 64 64 61 60 60 59 57 55 55 55 55 54 56 58 60 60 59 60 59 59 60 60 60 60 60 59 59 58 57 57 56 57 56 59 58 56 55 55 57 56 56 55 54 54 55 54 53 53 53 52
59 60 61 61 61 61 61 62 63 63 64 64 63 62 61 60 59 58 57 56 54 53 52 50 49 49 55 59 58 59 59 59 59 59 59 59 59 59 58 56 57 56 58 58 55 56 57 59 59 57 55 55 56 56 54 54 53 53 52 53 52 51 51
59 60 60 60 60 60 61 62 63 61 61 60 61 61 60 60 59 57 55 54 52 50 49 48 46 45 49 58 58 60 58 59 59 59 59 57 56 57 57 57 58 59 55 54 51 48 48 51 55 58 56 55 55 56 55 54 54 52 53 53 52 52 53
60 60 59 59 59 60 61 61 60 59 60 60 59 59 59 58 57 56 55 53 51 48 47 46 42 40 44 53 58 58 59 58 58 59 58 57 56 56 56 57 57 59 58 56 52 46 44 45 45 46 48 51 55 57 54 53 52 50 49 50 50 48 50
58 58 59 58 59 59 61 61 60 59 59 59 58 58 57 56 55 54 53 51 49 47 46 43 40 41 43 47 53 59 59 59 58 58 59 58 58 58 57 57 57 58 57 56 55 53 50 44 43 44 45 45 44 44 48 53 51 50 49 49 50 51 48
57 57 57 58 58 59 60 60 59 59 58 58 57 56 55 54 53 53 52 50 48 47 46 41 40 41 44 47 50 56 59 59 58 58 60 60 59 58 57 57 56 55 56 59 57 55 55 54 48 46 48 48 47 45 42 42 45 52 50 48 53 50 50
57 57 57 57 58 57 58 58 58 58 57 56 55 53 53 52 52 51 51 50 48 47 47 42 40 41 44 47 49 53 59 59 58 59 59 59 59 57 57 56 54 52 50 51 51 52 54 54 53 53 53 53 53 51 45 42 41 42 48 52 49 53 50
56 56 57 58 57 57 56 56 56 56 56 55 54 52 52 50 50 50 49 49 49 48 46 41 40 41 44 48 48 52 59 59 58 58 58 57 57 57 57 56 54 51 50 48 46 46 52 53 54 53 52 52 51 51 52 53 52 51 49 50 52 52 51
55 56 56 57 56 55 55 54 54 53 52 52 51 50 50 50 49 49 49 50 50 48 47 41 41 42 44 48 50 57 58 58 57 56 56 56 56 56 55 54 52 51 50 49 46 41 45 53 56 55 54 53 53 52 52 50 45 45 48 50 51 52 53
55 56 56 55 55 54 54 53 52 52 50 49 49 48 48 48 49 49 50 50 49 48 47 43 41 42 44 49 51 57 56 55 54 53 52 52 53 53 53 53 52 50 49 48 42 40 44 51 55 55 54 53 53 52 51 52 48 45 44 43 42 41 41
54 54 54 54 54 53 53 53 52 52 50 49 48 48 48 48 48 49 49 49 49 48 47 44 42 43 44 47 52 56 55 53 52 50 50 50 50 49 50 53 53 51 49 46 39 40 42 51 53 53 53 52 52 51 50 50 51 51 47 46 45 45 43
52 53 52 52 53 52 51 51 51 51 50 50 49 48 48 48 48 49 49 49 50 49 47 46 42 42 44 46 53 55 54 53 51 50 50 49 49 48 47 46 45 46 46 41 37 38 39 47 51 50 50 50 49 49 47 46 46 46 47 49 50 51 51
52 51 51 52 52 51 52 51 51 50 49 48 48 47 47 48 48 47 48 48 48 48 47 46 44 42 43 44 47 55 54 53 51 51 51 51 50 49 49 47 44 39 38 38 38 37 37 39 47 47 48 47 47 47 45 44 44 44 44 45 47 48 49
50 51 52 51 51 51 51 51 50 49 48 48 47 47 47 48 47 47 47 47 47 47 48 46 43 41 42 43 44 48 53 53 52 51 51 50 50 49 48 46 45 40 38 39 38 37 37 35 37 44 44 45 43 41 40 43 43 44 45 45 47 47 47
48 49 49 50 50 50 51 51 50 50 48 47 47 46 47 47 46 45 45 45 46 45 48 47 46 42 41 42 42 44 49 49 50 51 49 48 47 46 45 44 43 39 38 39 38 38 36 35 35 42 37 36 36 35 39 42 43 45 45 45 45 45 45
46 47 46 47 48 47 48 49 50 50 48 47 47 46 45 45 45 44 45 46 45 45 45 45 43 44 41 41 41 41 42 45 43 49 48 46 44 43 44 43 44 40 37 38 38 39 40 40 41 37 34 34 35 36 41 44 44 44 43 43 43 42 42
45 44 44 45 45 45 45 46 47 49 49 48 47 46 46 46 45 46 44 44 44 44 44 45 42 41 41 39 40 40 39 40 41 44 45 43 41 42 41 40 40 38 40 40 40 40 39 40 38 36 37 37 40 41 43 43 42 42 40 40 40 40 39

ECMWFFLT1_sfc_temp_084.txt.gz
Temp
62 62 64 64 64 65 65 65 64 64 65 65 65 65 65 65 64 63 64 64 64 64 64 63 63 63 63 63 64 64 63 63 63 62 61 61 60 61 61 60 59 60 62 58 62 59 58 56 57 60 62 61 61 61 63 62 61 61 61 61 61 61 61
61 61 64 65 64 65 64 64 64 64 65 65 65 65 65 65 65 64 64 64 64 64 64 64 64 64 63 63 62 62 62 62 63 63 62 61 61 60 58 57 59 60 59 60 61 59 59 56 56 57 58 60 61 61 62 61 62 61 61 61 62 62 62
62 62 64 64 64 64 64 63 64 64 64 64 64 65 64 64 64 64 64 63 64 64 64 64 64 64 63 63 63 63 63 62 62 63 63 62 62 61 61 58 57 58 59 59 59 58 59 58 57 57 58 58 57 59 61 62 62 61 61 62 62 61 61
62 62 63 63 64 64 63 63 63 63 64 64 63 64 64 64 65 64 64 64 64 64 65 64 63 64 63 63 63 63 63 62 62 62 62 62 62 61 60 61 61 61 60 58 58 59 57 56 57 57 59 61 60 59 61 61 61 62 63 62 62 60 60
62 63 63 63 64 64 64 63 63 63 63 63 63 63 63 64 64 64 64 64 64 64 64 64 64 64 64 63 63 63 63 63 63 62 62 61 61 61 61 61 61 62 60 60 60 61 60 59 60 58 58 60 60 60 61 61 63 63 62 62 61 60 60
61 62 63 63 64 64 64 63 63 62 62 62 62 62 63 64 64 64 63 63 63 63 64 64 64 64 63 63 63 63 63 62 62 62 62 61 62 61 61 61 61 61 61 60 61 61 59 60 61 58 59 62 58 58 60 61 61 62 62 62 62 61 61
61 61 62 62 63 64 64 64 63 63 62 62 62 63 63 64 64 64 64 64 64 64 64 64 64 64 64 63 63 63 63 63 63 62 62 62 61 63 62 61 60 61 60 60 61 61 60 60 59 59 58 58 60 59 60 61 62 60 61 61 62 62 61
61 61 61 62 62 63 64 64 64 63 63 62 62 63 63 63 63 63 63 63 63 63 64 64 64 64 64 64 63 63 63 63 63 62 62 61 61 61 61 62 61 60 60 60 61 61 62 62 61 60 60 56 57 58 58 60 60 60 60 60 61 61 60
61 61 61 61 62 63 63 63 63 63 63 62 62 62 63 63 62 63 63 63 63 63 63 64 63 63 63 63 63 62 62 63 62 62 61 61 62 61 61 61 61 61 60 60 61 61 62 62 62 62 62 61 58 54 57 57 58 59 60 60 60 60 60
61 61 61 61 61 61 62 62 62 62 62 62 62 63 62 62 62 63 63 62 62 62 63 63 64 63 63 63 63 62 62 62 62 62 61 61 61 61 60 61 62 61 60 60 61 61 61 61 62 63 64 63 62 58 54 55 56 57 60 60 61 60 60
61 61 61 61 61 61 61 61 61 61 61 62 62 63 62 62 62 64 62 62 61 62 63 63 64 63 63 63 63 62 63 62 61 60 61 61 60 60 60 60 61 60 60 60 60 60 61 61 62 63 63 63 62 61 58 55 56 58 59 58 59 61 58
61 61 62 62 61 61 61 60 61 61 61 62 62 61 61 61 61 62 62 61 61 61 62 62 63 63 63 62 62 61 61 62 61 60 60 61 60 60 60 60 59 59 59 60 60 60 61 61 62 63 62 61 61 61 60 57 55 57 59 59 59 59 59
61 62 62 62 61 61 61 61 61 60 61 61 61 62 61 61 61 61 60 61 61 61 61 61 62 62 62 62 61 61 61 62 61 61 60 60 61 61 60 60 59 59 59 60 59 60 60 61 61 61 62 61 60 60 60 57 57 58 58 59 59 58 59
61 62 62 61 61 61 61 61 61 61 61 60 61 61 61 61 62 61 61 61 61 61 61 61 61 61 62 61 61 62 61 62 62 60 60 60 61 61 61 60 59 59 60 60 59 59 60 61 61 61 61 60 60 60 61 58 58 56 57 55 56 58 58
62 62 61 61 60 61 61 61 61 61 61 61 61 61 62 61 61 61 61 61 61 61 61 61 60 61 61 60 60 61 61 61 61 60 60 60 60 60 60 60 58 58 60 60 59 60 60 59 60 60 61 61 61 60 61 60 56 56 57 57 56 56 57
61 61 61 61 61 61 61 60 61 61 60 60 61 61 61 60 61 62 62 61 61 61 61 61 60 61 61 61 60 60 61 61 61 59 60 60 60 60 60 59 58 58 59 60 60 60 60 61 61 61 62 62 61 61 62 61 58 57 57 56 55 56 56
61 61 60 61 61 61 61 60 61 61 61 60 60 60 61 61 61 61 62 61 61 61 60 60 60 61 61 61 61 60 60 60 61 61 61 60 60 60 60 59 58 59 60 60 59 59 60 61 61 62 61 60 61 60 60 59 63 58 56 58 54 58 56
60 60 60 61 61 61 61 60 60 61 60 60 60 60 60 61 62 62 61 61 61 61 61 60 60 59 60 60 61 60 60 60 60 60 61 61 61 60 60 60 59 59 60 59 58 59 59 60 61 61 61 61 61 60 60 60 61 59 58 58 55 55 55
59 59 60 60 60 60 60 60 60 60 61 60 60 60 61 61 62 62 62 62 62 61 60 60 60 60 59 59 59 60 60 60 60 60 60 60 60 60 60 59 59 59 60 60 60 60 59 60 60 60 60 61 62 60 59 59 59 59 60 58 56 54 54
59 59 59 59 60 60 60 60 60 60 60 60 60 60 60 61 61 62 61 61 61 61 60 59 59 59 59 59 59 59 59 59 59 60 60 60 60 60 60 59 59 59 60 60 60 60 59 59 59 59 59 59 60 60 58 58 58 58 58 56 54 55 54
60 60 59 59 59 60 60 60 60 60 60 60 60 61 61 61 59 60 59 59 58 59 58 58 57 58 59 59 59 58 59 59 59 59 59 59 59 59 59 60 59 59 60 59 60 60 60 59 58 58 57 58 58 58 58 56 56 57 56 56 55 54 54
60 60 60 60 59 59 59 60 60 59 59 60 61 60 60 59 58 57 56 56 56 56 57 56 56 58 58 58 58 58 59 59 59 58 58 58 57 57 56 56 56 57 59 58 55 56 56 57 58 57 55 57 56 57 55 55 55 55 55 55 53 52 54
59 59 59 59 59 59 60 59 59 59 59 59 58 59 59 58 57 56 55 54 54 54 52 50 50 51 54 58 58 58 58 59 59 58 57 56 55 55 55 56 58 57 55 54 52 48 48 50 54 57 56 57 56 56 56 55 55 55 55 56 55 54 54
59 58 59 59 59 59 59 59 58 58 58 57 57 57 57 56 55 55 55 54 53 51 48 48 44 41 47 51 58 58 58 58 58 58 57 57 55 55 55 56 56 56 54 52 49 45 44 43 44 44 45 48 53 58 57 55 54 54 55 54 52 52 53
58 58 59 59 59 59 59 58 58 57 56 56 55 56 55 55 54 53 53 53 51 50 48 44 41 41 44 48 53 58 58 58 57 56 57 56 56 56 56 56 56 57 56 54 52 49 47 44 44 43 43 43 43 42 46 54 55 54 53 54 53 52 53
58 58 58 59 58 58 57 57 56 56 56 55 56 55 54 53 53 53 53 52 50 50 49 42 42 42 44 46 48 54 58 58 57 55 56 57 56 56 56 55 54 54 57 57 56 55 55 52 47 46 47 46 44 43 42 41 44 55 56 55 54 53 55
56 57 57 56 56 56 56 55 55 55 54 53 54 53 53 52 52 52 52 52 50 49 48 44 42 43 45 45 46 51 57 57 57 57 56 56 56 55 55 55 54 52 53 55 56 56 56 56 55 55 53 52 52 50 45 43 43 44 49 55 56 55 54
55 55 55 55 55 54 53 52 52 52 51 51 52 52 52 51 51 51 51 51 50 48 47 42 42 43 44 45 47 50 57 57 56 55 54 54 54 54 53 54 54 53 52 52 53 55 56 55 54 52 51 51 51 50 49 50 50 51 52 52 52 52 52
53 53 53 52 52 51 51 50 49 49 49 49 48 49 50 51 50 50 51 51 51 49 47 42 42 44 45 46 48 56 56 54 53 53 52 52 53 53 53 53 53 52 51 50 48 47 50 56 55 53 51 50 50 50 50 46 42 43 48 49 50 49 49
52 52 51 50 49 49 48 48 48 48 47 46 46 46 47 48 49 50 50 50 50 48 47 43 42 44 45 46 49 54 53 52 51 50 49 49 49 51 52 52 52 52 51 49 45 45 46 51 55 53 51 50 50 50 50 51 45 41 40 40 40 40 40
50 50 50 49 48 47 47 46 46 47 46 45 45 45 46 47 47 48 48 48 49 49 47 43 42 43 45 46 50 54 53 51 50 49 48 47 46 46 49 51 51 50 49 47 42 44 45 52 54 52 52 50 50 49 49 49 52 50 44 43 42 42 42
49 49 48 47 47 46 46 45 46 46 45 45 45 45 45 46 46 47 47 48 50 48 47 46 43 43 44 46 51 53 52 51 49 48 47 46 46 46 46 46 47 48 48 45 42 43 45 51 53 52 52 51 49 47 46 48 49 50 50 49 48 48 46
48 49 48 47 47 46 46 45 45 45 45 44 44 44 45 44 44 44 45 45 45 46 46 45 43 42 44 46 47 54 53 51 49 47 48 49 48 47 47 47 44 39 39 40 40 40 42 45 51 50 50 49 47 45 47 47 47 48 48 47 47 47 46
46 48 49 48 47 47 46 46 45 45 44 44 44 44 44 43 43 43 43 43 43 44 44 44 42 41 42 43 45 49 52 51 50 48 48 47 48 47 46 45 44 40 38 38 39 39 40 41 44 49 49 48 47 45 45 48 46 45 47 46 45 45 45
45 46 47 48 47 46 46 46 46 46 45 45 45 44 44 43 42 42 42 42 42 41 43 43 42 41 41 42 42 45 50 49 49 48 47 46 46 45 44 44 42 39 38 38 38 38 39 39 40 43 40 38 38 40 46 46 46 46 44 43 43 42 42
43 44 45 46 46 45 46 46 46 46 45 45 45 44 44 44 43 42 41 41 41 41 41 41 40 41 40 40 41 41 43 45 43 49 47 46 44 43 43 42 42 40 39 39 39 39 39 39 41 40 37 38 39 39 42 45 44 44 43 42 42 40 39
42 42 43 44 45 45 45 45 45 45 45 44 44 43 43 43 43 42 41 40 41 41 41 41 40 39 39 39 39 40 40 41 42 45 45 44 43 43 42 42 41 39 39 39 39 39 39 40 41 38 39 38 39 40 44 43 42 42 41 40 40 39 39

ECMWFFLT1_sfc_temp_087.txt.gz
Temp
64 64 66 68 69 70 71 71 70 68 70 68 66 67 69 67 66 66 67 67 66 66 66 68 69 70 69 69 69 70 68 67 67 68 67 68 66 67 69 68 69 69 73 72 72 69 67 62 61 65 67 66 66 67 69 69 69 69 65 67 69 69 70
65 65 64 66 67 69 69 71 70 69 68 67 66 66 66 66 66 66 67 67 66 66 67 68 70 71 68 68 66 67 67 67 68 69 69 67 68 69 67 67 70 70 71 72 71 71 69 66 63 63 64 64 66 68 68 69 68 69 69 69 70 70 69
67 67 67 66 67 69 68 68 69 68 68 67 66 67 67 67 66 66 66 67 68 68 67 68 69 68 67 67 68 68 68 67 67 69 69 70 70 71 70 69 68 68 69 69 69 69 68 69 66 65 65 63 61 65 68 68 69 69 70 69 69 70 69
67 68 68 67 68 69 68 68 67 67 67 67 65 65 66 67 68 68 66 67 69 69 70 70 70 66 66 67 69 68 68 67 68 69 70 71 71 70 70 71 70 70 69 68 68 69 68 66 66 66 66 68 66 62 67 69 70 71 70 69 69 69 70
69 68 68 68 70 71 69 68 68 67 66 66 64 64 65 66 67 66 67 67 68 68 69 70 71 69 68 68 69 68 67 67 69 70 70 70 69 69 69 71 72 73 72 72 72 72 70 69 69 67 66 67 67 68 70 67 67 67 68 69 70 70 72
69 68 69 69 70 70 70 69 68 67 66 65 63 63 64 65 66 66 67 67 68 69 70 71 70 71 70 68 69 69 68 67 68 69 69 69 70 69 70 71 73 73 73 74 73 73 72 71 70 69 69 69 65 65 69 69 67 68 69 69 71 73 74
68 68 68 69 69 70 70 69 69 69 67 67 66 63 65 66 66 67 68 68 69 70 71 71 71 71 70 70 70 69 68 68 68 69 70 71 70 70 72 70 71 72 73 73 73 73 71 70 70 69 66 66 67 65 67 69 70 68 69 71 72 74 74
68 68 68 69 69 68 69 69 69 69 67 68 67 66 65 66 67 67 68 68 68 69 70 70 70 70 71 71 72 70 69 69 70 70 71 71 70 71 71 71 70 70 70 71 73 73 75 73 72 71 68 63 63 64 63 68 69 70 71 71 73 74 74
68 67 67 68 68 68 68 68 68 68 69 69 68 68 66 65 65 64 67 68 69 69 69 70 70 70 70 70 71 69 68 68 68 69 70 71 70 70 71 71 71 70 69 70 73 74 75 75 74 72 71 70 65 61 64 63 66 67 72 70 72 74 74
67 66 66 66 67 68 67 67 67 68 69 68 67 68 67 66 65 65 66 67 68 68 69 69 68 66 65 65 68 69 67 67 67 70 70 70 70 70 71 70 72 71 71 72 73 74 74 73 75 74 75 72 71 68 63 62 64 65 70 73 70 71 74
67 67 66 66 67 67 67 68 68 67 67 68 68 67 67 67 66 66 67 68 68 68 68 68 66 64 64 64 66 68 70 69 68 69 68 68 69 71 71 71 72 72 71 70 71 72 73 73 73 74 74 75 74 70 68 65 65 68 69 71 73 72 71
67 67 65 66 66 66 67 67 66 66 67 68 68 68 67 68 68 67 66 68 68 67 67 67 66 65 64 63 65 64 68 69 70 68 69 70 71 71 71 69 71 70 65 66 69 71 72 73 73 74 74 74 73 72 70 70 66 68 72 68 71 74 72
66 67 67 65 65 66 66 67 66 66 67 67 67 68 69 69 69 68 68 68 67 67 67 66 66 66 65 64 64 66 67 67 67 70 69 70 70 70 70 71 70 69 68 69 70 71 71 72 73 74 73 72 72 71 71 70 68 66 69 71 72 72 73
65 66 66 66 66 66 67 67 66 66 67 68 69 68 68 70 70 69 68 67 67 66 66 64 65 65 65 65 66 66 66 66 67 66 66 67 71 71 72 72 72 71 70 70 71 71 72 73 72 72 73 73 72 71 71 70 69 67 67 68 70 72 71
66 66 66 65 65 65 66 66 67 66 65 67 69 69 69 70 70 70 69 68 67 67 67 66 65 65 66 65 65 66 67 67 68 67 68 68 70 72 71 71 71 71 72 73 72 74 73 72 73 72 73 73 73 72 73 73 71 69 66 67 69 71 70
65 64 62 62 63 65 66 67 68 66 66 67 68 69 70 71 70 70 70 68 68 68 66 66 66 66 67 67 65 65 66 67 67 67 68 70 72 72 70 68 69 70 71 71 71 73 72 72 73 73 72 74 73 72 74 75 72 70 69 68 69 70 70
64 63 63 63 65 65 65 65 66 66 67 67 67 68 70 71 70 69 68 69 69 67 66 65 66 68 69 70 68 66 66 66 67 69 70 71 72 71 70 69 69 70 71 70 71 70 71 72 71 73 72 72 71 72 72 72 73 72 71 69 67 73 71
64 63 63 64 65 65 64 63 63 65 66 66 67 68 69 71 69 69 67 67 68 69 67 67 68 70 71 71 69 68 68 68 67 71 71 71 70 72 71 70 71 71 71 70 69 70 71 70 73 73 72 73 72 72 71 71 73 73 71 70 68 69 70
64 64 64 63 64 65 65 64 64 63 65 66 67 68 69 69 70 70 69 70 71 70 69 70 70 72 73 72 70 69 70 69 70 72 71 72 72 72 72 72 72 72 71 70 70 70 71 71 72 72 72 73 74 70 69 69 71 71 72 72 71 67 67
63 63 63 63 64 64 65 64 64 64 65 66 67 66 65 65 65 67 70 71 70 68 69 70 71 72 73 72 72 72 71 71 70 71 71 71 72 72 73 73 72 72 71 72 71 71 70 70 70 71 72 71 72 68 69 69 71 71 70 70 70 70 69
63 63 64 64 64 64 64 64 64 64 64 65 66 66 64 64 65 66 68 68 67 67 68 70 72 72 73 72 72 71 71 71 71 70 70 70 71 72 72 72 72 72 73 73 73 72 71 70 71 71 71 71 70 68 68 69 69 71 70 70 70 68 69
62 64 64 63 63 63 63 63 63 63 64 65 66 66 65 64 64 67 68 65 65 66 67 69 71 71 71 71 72 71 71 71 70 70 69 70 70 71 71 71 71 72 71 66 60 63 64 65 71 70 69 71 70 69 69 70 70 70 70 69 68 68 68
60 62 62 62 62 63 63 63 63 63 63 65 66 67 66 66 67 68 67 66 65 65 67 68 64 58 61 71 71 72 70 71 71 70 70 69 68 68 68 69 66 58 55 55 52 49 49 52 57 67 71 70 69 69 69 69 69 70 70 69 69 68 67
59 60 62 62 62 62 63 63 62 61 62 63 64 65 65 67 67 66 66 65 64 63 62 60 47 48 51 55 68 70 70 70 70 70 69 68 67 66 67 67 65 60 58 55 52 44 44 43 44 44 45 49 57 69 70 68 69 69 69 69 68 68 68
60 61 63 63 63 63 62 61 60 59 59 60 61 62 62 66 65 63 63 64 63 61 59 47 42 45 46 50 58 70 70 69 69 68 68 68 68 67 66 65 65 64 64 61 57 53 47 43 42 42 42 43 42 40 46 65 69 67 68 67 67 67 68
59 60 61 61 61 61 61 60 60 59 60 60 59 60 62 60 60 59 61 62 60 59 56 42 42 43 45 47 50 61 70 69 68 67 65 66 67 67 66 65 64 63 62 57 59 58 56 53 46 44 46 46 44 44 42 41 47 66 72 68 67 66 67
57 58 59 58 58 59 60 60 60 59 58 57 58 57 58 57 57 58 60 61 60 59 58 43 41 43 44 45 48 58 69 67 66 66 66 65 65 65 65 65 64 62 63 64 64 64 64 64 64 65 65 65 63 56 49 47 47 47 58 69 69 66 64
55 57 58 56 54 53 53 55 55 55 54 55 55 55 55 55 57 58 59 60 59 57 53 41 42 43 44 45 48 54 64 63 64 64 64 64 65 65 65 65 64 62 62 64 66 64 66 65 64 63 63 62 61 58 56 59 61 64 64 64 64 62 60
55 56 56 56 54 50 49 50 50 50 51 52 52 52 51 54 55 57 58 59 57 53 48 41 42 43 45 46 50 61 62 61 61 62 62 63 63 64 64 63 63 63 60 59 52 49 56 64 64 63 60 60 59 56 50 43 42 46 52 56 56 55 54
53 53 54 54 53 50 47 47 48 49 48 48 47 47 48 50 53 57 58 56 54 51 50 44 42 43 45 47 54 61 59 59 59 59 59 59 59 59 61 62 61 61 59 58 48 46 48 55 64 63 61 59 57 55 52 50 43 40 40 40 40 40 40
52 52 51 50 50 50 49 47 47 47 47 46 46 46 47 48 49 51 53 53 54 52 51 46 42 44 46 48 54 61 61 60 58 58 57 54 53 52 51 52 59 62 60 58 43 45 48 58 61 61 61 58 57 55 54 54 54 49 42 42 41 41 41
51 51 51 50 50 49 49 47 46 47 46 46 45 45 46 45 46 47 49 50 50 51 51 48 42 42 44 47 56 60 59 57 57 55 51 49 51 50 49 47 47 51 55 48 40 45 48 58 64 64 63 61 57 55 55 59 58 58 59 58 58 57 55
50 50 50 50 51 50 49 47 47 46 46 45 45 45 45 44 43 43 45 47 48 48 47 46 44 42 44 46 49 59 59 56 53 52 52 52 54 53 52 50 45 39 39 40 41 41 44 49 61 62 62 60 57 54 59 60 59 59 57 57 56 55 54
50 50 49 49 50 51 51 48 48 47 46 46 45 44 44 44 43 43 43 44 44 44 45 45 43 40 42 44 46 49 53 51 50 50 52 52 53 52 52 49 45 40 38 39 40 40 42 43 48 60 60 59 56 54 53 56 53 49 56 55 55 56 56
49 49 50 49 49 49 50 50 49 48 47 46 45 44 44 43 43 42 43 43 43 42 43 43 44 41 41 41 43 46 51 50 50 49 48 49 48 47 45 46 46 41 39 39 40 40 41 42 43 51 48 41 40 44 57 57 58 59 58 58 58 57 57
46 48 48 48 48 47 48 48 48 48 47 46 45 44 44 44 43 43 43 43 42 42 42 42 40 41 40 40 40 42 43 46 44 50 48 47 46 45 44 43 42 40 39 39 40 40 41 41 44 44 39 40 41 42 49 59 58 59 58 57 56 55 54
44 45 46 47 47 47 47 47 47 46 46 45 43 43 43 43 43 43 42 42 42 42 43 42 40 39 40 39 39 39 40 40 42 47 48 46 46 45 44 43 41 38 39 39 38 39 39 41 43 38 39 39 42 47 57 57 57 56 54 54 54 53 53